Date,TemperatureHighF,TemperatureAvgF,TemperatureLowF,DewpointHighF,DewpointAvgF,DewpointLowF,HumidityHigh,HumidityAvg,HumidityLow,PressureMaxIn,PressureMinIn,WindSpeedMaxMPH,WindSpeedAvgMPH,GustSpeedMaxMPH,PrecipitationSumIn
2013-5-1,59.3,55.0,50.4,51.8,50.2,48.7,95,84,69,30.22,30.17,11,2,13,0.00
2013-5-2,53.9,51.8,49.5,52.5,50.6,48.1,96,96,94,30.25,30.11,8,1,10,0.01
2013-5-3,53.5,50.1,41.9,49.5,45.7,38.0,92,85,79,30.16,30.01,13,3,16,0.00
2013-5-4,47.3,45.6,42.6,45.7,44.3,41.2,96,95,94,30.04,29.86,15,4,15,0.01
2013-5-5,50.8,46.8,42.2,49.7,45.7,41.1,96,96,96,29.93,29.77,11,2,13,0.00
2013-5-6,62.9,49.7,39.5,51.0,41.8,38.2,95,76,46,29.88,29.75,6,0,8,0.00
2013-5-7,62.7,51.3,48.9,51.2,48.0,42.1,96,89,48,29.92,29.85,4,0,4,0.01
2013-5-8,66.1,55.8,46.2,55.2,50.4,44.8,96,83,59,30.04,29.90,7,0,8,0.00
2013-5-9,77.9,63.6,52.0,55.6,52.0,47.6,94,70,35,30.04,29.97,7,0,9,0.01
2013-5-10,76.1,70.2,54.5,57.7,54.7,51.4,93,59,43,29.97,29.82,12,1,12,0.00
2013-5-11,73.3,55.8,48.8,58.2,50.4,43.8,92,82,56,29.86,29.74,10,0,13,0.00
2013-5-12,62.6,49.7,35.8,41.1,31.7,28.1,85,52,29,30.11,29.90,10,1,13,0.00
2013-5-13,61.8,48.1,35.5,33.1,29.4,19.8,86,54,20,30.22,30.06,13,1,14,0.00
2013-5-14,73.0,62.4,50.7,51.9,45.5,34.3,88,58,28,30.16,29.96,9,0,11,0.00
2013-5-15,86.3,71.4,55.6,54.3,49.7,45.3,81,50,27,29.99,29.87,8,0,10,0.00
2013-5-16,77.9,64.9,53.9,55.7,52.9,49.8,94,69,39,30.01,29.89,5,0,10,0.00
2013-5-17,77.9,67.4,58.9,59.2,56.4,53.8,93,70,45,30.02,29.97,8,0,9,0.00
2013-5-18,63.5,61.6,60.4,62.0,60.3,59.1,96,95,94,30.05,29.99,0,0,1,0.00
2013-5-19,72.5,65.4,59.2,67.8,61.2,55.4,96,87,71,30.01,29.93,5,0,7,0.00
2013-5-20,77.4,67.4,60.4,68.1,62.1,56.8,95,84,65,30.08,29.89,0,0,1,0.01
2013-5-21,83.0,69.5,60.1,67.7,62.7,58.7,95,81,52,29.98,29.83,2,0,5,0.00
2013-5-22,77.4,63.7,58.9,69.3,60.3,55.8,96,89,65,29.91,29.80,6,0,8,0.00
2013-5-23,78.5,65.3,55.1,61.8,53.6,49.3,83,67,45,29.91,29.77,12,1,13,0.00
2013-5-24,67.3,54.4,37.9,47.5,39.4,34.1,90,59,38,30.26,30.03,7,0,8,0.00
2013-5-25,73.9,61.0,52.2,45.9,40.6,33.7,79,50,24,30.20,30.05,6,0,8,0.00
2013-5-26,72.8,60.0,49.6,50.2,47.3,41.0,93,67,35,30.20,30.11,7,0,8,0.00
2013-5-27,79.6,66.2,56.0,58.2,55.1,53.0,94,70,43,30.16,30.07,6,0,6,0.00
2013-5-28,80.3,67.6,56.9,62.2,57.5,53.6,93,72,42,30.14,30.07,5,0,8,0.00
2013-5-29,81.4,67.6,58.1,64.0,58.6,55.2,95,75,41,30.17,30.07,1,0,3,0.00
2013-5-30,79.6,67.9,60.5,64.0,59.2,57.0,92,75,55,30.18,30.09,2,0,5,0.00
2013-5-31,80.7,69.4,61.6,62.3,59.5,55.7,92,73,45,30.14,30.02,6,0,6,0.00